Weather in Ikskile

Latvia     56°49′58″N   24°29′59″E
temp.,
°C
wind,
m/s
gust,
m/s
humid.,
%
clouds,
%
prec.,
mm/h
press.,
hPa
HPBL,
m
24 february, wed
wed2423:00+2wsw3898100 0.0 1025245
02:000wsw229793 0.0 102776
05:00−1sw2397100 0.0 102682
08:00−1sw239581 0.0 102864
11:00+3ssw3691100 0.0 1027248
14:00+5sw38100100 0.0 1026331
17:00+6sw41198100 0.0 1024434
20:00+5sw5139896 0.0 1023481
25 february, thu
thu2523:00+4wsw4129696 0.0 1021463
02:00+4wsw3119891 0.0 1021434
05:00+5wsw41198100 0.0 1020419
08:00+4sw31197100 0.0 1021405
11:00+6wsw31094100 0.0 1021536
14:00+9wsw4119194 0.0 1021641
17:00+7sw41590100 0.0 1019479
20:00+5sw4149487 0.0 1018385
26 february, fri
fri2623:00+6wsw4139678 0.0 1015591
02:00+7wsw5149489 0.0 1014646
05:00+6w51390100 0.1 1013719
08:00+3w4138768 0.1 1014745
11:00+5w4108454 0.0 1013989
14:00+5wsw4118477 0.0 1013869
17:00+5wsw41185100 0.1 1012929
20:00+4w4118699 0.1 1012671
27 february, sat
sat2723:00+2w4119032 0.0 1012403
02:00+2wnw4129059 0.0 1012674
05:00+1nnw61287100 0.3 1013989
08:00+1nnw51286100 0.3 1016679
11:00+1nnw51083100 0.0 1019755
14:00+1nnw51079100 0.0 1021816
17:00+1nnw498264 0.0 1024574
20:00−1nnw3118535 0.0 1026384
28 february, sun
sun2823:00−2nw27890 0.0 1027213
02:00−1wnw37948 0.0 1028274
05:000wnw3990100 0.0 1027443
08:00+1wnw3797100 0.3 1026424
11:00+3nw3996100 0.3 1026463
14:00+6nw5975100 1.1 1026940
17:00+4nw3108194 0.0 1026570
20:000nw279381 0.0 1027192